Fredericksburg, TX

7:50 AM CDT on September 26, 2017 (GMT -0500)
Fredericksburg

Weather History for KT82 - October, 2012

Change the Weather History Date:

Friday, October 26, 2012

  Actual Average (KSAT) Record (KSAT)
Temperature  
Mean Temperature 52 °F -  
Max Temperature 59 °F 79 °F 91 °F (1987)
Min Temperature 45 °F 56 °F 38 °F (1955)
Degree Days  
Heating Degree Days 13    
Growing Degree Days 2 (Base 50)    
Moisture  
Dew Point 41 °F    
Average Humidity 69    
Maximum Humidity 93    
Minimum Humidity 56    
Precipitation  
Precipitation 0.69 in - - ()
Sea Level Pressure  
Sea Level Pressure 30.17 in    
Wind  
Wind Speed 12 mph (NNE)    
Max Wind Speed 20 mph    
Max Gust Speed 28 mph    
Visibility 10 miles    
Events Rain , Thunderstorm    
Averages and records for this station are not official NWS values.
T = Trace of Precipitation, MM = Missing Value Source: NWS Daily Summary

Daily Weather History Graph

Daily Weather History Graph

Search for Another Location

Airport or City:

Trip Planner

Search our weather history database for the weather conditions in past years. The results will help you decide how hot, cold, wet, or windy it might be!

Date:

Astronomy

Oct. 26, 2012 Rise Set
Actual Time 7:45 AM CDT 6:52 PM CDT
Civil Twilight 7:21 AM CDT 7:17 PM CDT
Nautical Twilight 6:53 AM CDT 7:45 PM CDT
Astronomical Twilight 6:25 AM CDT 8:13 PM CDT
Moon 5:01 PM CDT 4:54 AM CDT
Length of Visible Light 11h 56m
Length of Day
11h 07m
Waxing Gibbous, 91% of the Moon is Illuminated
Oct 26
Waxing Gibbous
Oct 29
Full
Nov 6
Last Quarter
Nov 13
New
Nov 20
First Quarter

Hourly Weather History & Observations

Time (CDT) Temp. Windchill Dew Point Humidity Pressure Visibility Wind Dir Wind Speed Gust Speed Precip Events Conditions
12:15 AM 59.4 °F - 48.2 °F 67% 30.06 in 10.0 mi NNE 12.7 mph - N/A   Overcast
12:35 AM 59.2 °F - 47.7 °F 66% 30.06 in 10.0 mi North 12.7 mph 17.3 mph N/A   Overcast
1:15 AM 58.8 °F - 47.1 °F 65% 30.06 in 10.0 mi North 11.5 mph 17.3 mph N/A   Overcast
1:35 AM 58.5 °F - 46.4 °F 64% 30.07 in 10.0 mi NNE 9.2 mph 17.3 mph N/A   Overcast
1:55 AM 58.3 °F - 46.4 °F 65% 30.07 in 10.0 mi NNE 11.5 mph 16.1 mph N/A   Overcast
2:35 AM 57.2 °F - 44.6 °F 63% 30.08 in 10.0 mi NNE 13.8 mph 18.4 mph N/A   Overcast
2:55 AM 56.7 °F - 43.9 °F 62% 30.07 in 10.0 mi NNE 11.5 mph 16.1 mph N/A   Overcast
3:15 AM 56.5 °F - 43.7 °F 62% 30.08 in 10.0 mi North 10.4 mph - N/A   Overcast
3:55 AM 55.4 °F - 43.0 °F 63% 30.08 in 10.0 mi NNE 9.2 mph - N/A   Overcast
4:15 AM 55.0 °F - 42.6 °F 63% 30.07 in 10.0 mi NNE 10.4 mph - N/A   Overcast
4:35 AM 54.5 °F - 42.6 °F 64% 30.07 in 10.0 mi North 10.4 mph 17.3 mph N/A   Overcast
4:55 AM 54.0 °F - 42.3 °F 65% 30.08 in 10.0 mi NNE 11.5 mph - N/A   Overcast
5:15 AM 53.8 °F - 42.8 °F 66% 30.08 in 10.0 mi NNE 10.4 mph 18.4 mph N/A   Overcast
5:35 AM 53.6 °F - 41.9 °F 65% 30.09 in 10.0 mi North 13.8 mph 18.4 mph N/A   Overcast
5:55 AM 52.9 °F - 41.9 °F 66% 30.09 in 10.0 mi North 16.1 mph - N/A   Overcast
6:15 AM 52.3 °F - 42.1 °F 68% 30.10 in 10.0 mi North 13.8 mph 17.3 mph N/A   Overcast
6:35 AM 51.8 °F - 41.5 °F 68% 30.11 in 10.0 mi NNE 15.0 mph 20.7 mph N/A   Overcast
6:55 AM 51.8 °F - 41.2 °F 67% 30.11 in 10.0 mi NNE 10.4 mph - N/A   Overcast
7:15 AM 51.4 °F - 41.4 °F 68% 30.12 in 10.0 mi NNE 11.5 mph - N/A   Overcast
7:35 AM 50.5 °F - 41.2 °F 70% 30.12 in 10.0 mi North 12.7 mph 19.6 mph N/A   Overcast
7:55 AM 49.8 °F - 41.9 °F 74% 30.12 in 10.0 mi NNE 17.3 mph - N/A   Overcast
8:55 AM 49.1 °F - 41.0 °F 74% 30.16 in 10.0 mi North 12.7 mph 23.0 mph N/A Thunderstorm Thunderstorm
9:15 AM 48.0 °F - 41.7 °F 79% 30.20 in 10.0 mi North 9.2 mph 17.3 mph 0.02 in Rain , Thunderstorm Heavy Thunderstorms and Rain
9:35 AM 45.5 °F 39.2 °F 43.2 °F 92% 30.17 in 1.0 mi NNE 13.8 mph - 0.49 in Rain , Thunderstorm Heavy Thunderstorms and Rain
9:55 AM 45.7 °F 41.0 °F 43.2 °F 91% 30.20 in 7.0 mi North 9.2 mph - 0.65 in Rain , Thunderstorm Thunderstorms and Rain
10:15 AM 45.7 °F 41.5 °F 43.9 °F 93% 30.19 in 10.0 mi North 8.1 mph - N/A Rain , Thunderstorm Rain
10:35 AM 45.7 °F 40.2 °F 43.9 °F 93% 30.20 in 7.0 mi North 11.5 mph 16.1 mph 0.03 in Rain , Thunderstorm Rain
10:55 AM 45.3 °F 41.1 °F 43.2 °F 92% 30.21 in 10.0 mi NNE 8.1 mph 19.6 mph 0.04 in Rain , Thunderstorm Thunderstorms and Rain
11:15 AM 46.2 °F 42.7 °F 43.9 °F 92% 30.22 in 10.0 mi North 6.9 mph - N/A Thunderstorm Overcast
11:35 AM 46.9 °F - 43.7 °F 88% 30.21 in 10.0 mi North 12.7 mph 17.3 mph N/A Rain Light Rain
11:55 AM 48.0 °F - 43.9 °F 86% 30.21 in 10.0 mi NNE 12.7 mph 21.9 mph N/A   Mostly Cloudy
12:15 PM 48.9 °F - 43.2 °F 80% 30.22 in 10.0 mi North 11.5 mph 20.7 mph N/A   Mostly Cloudy
12:35 PM 49.5 °F - 43.2 °F 79% 30.22 in 10.0 mi North 16.1 mph 21.9 mph N/A Thunderstorm Overcast
12:55 PM 49.1 °F - 41.9 °F 76% 30.22 in 10.0 mi North 15.0 mph - N/A   Overcast
1:15 PM 49.3 °F - 41.5 °F 75% 30.22 in 10.0 mi North 15.0 mph 23.0 mph N/A   Overcast
1:35 PM 50.2 °F - 41.9 °F 73% 30.21 in 10.0 mi North 17.3 mph 23.0 mph N/A   Overcast
1:55 PM 49.5 °F - 40.8 °F 72% 30.20 in 10.0 mi North 19.6 mph 27.6 mph N/A   Overcast
2:15 PM 49.5 °F - 41.0 °F 73% 30.19 in 10.0 mi North 17.3 mph 23.0 mph N/A   Overcast
2:35 PM 50.4 °F - 41.0 °F 70% 30.18 in 10.0 mi North 18.4 mph 24.2 mph N/A   Overcast
2:55 PM 50.9 °F - 40.6 °F 68% 30.18 in 10.0 mi North 16.1 mph 20.7 mph N/A   Overcast
3:15 PM 50.7 °F - 40.6 °F 68% 30.18 in 10.0 mi North 15.0 mph 20.7 mph N/A   Overcast
3:35 PM 49.5 °F - 39.4 °F 68% 30.18 in 10.0 mi North 17.3 mph 27.6 mph N/A   Overcast
3:55 PM 49.6 °F - 39.6 °F 68% 30.18 in 10.0 mi North 13.8 mph 21.9 mph N/A   Overcast
4:15 PM 49.6 °F - 39.6 °F 68% 30.18 in 10.0 mi North 11.5 mph 21.9 mph N/A   Overcast
4:35 PM 50.0 °F - 39.2 °F 66% 30.17 in 10.0 mi North 15.0 mph 20.7 mph N/A   Overcast
4:55 PM 51.1 °F - 39.9 °F 66% 30.17 in 10.0 mi North 12.7 mph 17.3 mph N/A   Overcast
5:15 PM 52.0 °F - 40.5 °F 65% 30.17 in 10.0 mi North 12.7 mph 17.3 mph N/A   Overcast
5:35 PM 53.6 °F - 41.0 °F 62% 30.17 in 10.0 mi North 10.4 mph - N/A   Overcast
5:55 PM 54.1 °F - 40.1 °F 59% 30.18 in 10.0 mi NNE 11.5 mph 16.1 mph N/A   Overcast
6:15 PM 54.1 °F - 40.1 °F 59% 30.18 in 10.0 mi NNE 10.4 mph - N/A   Overcast
6:35 PM 54.1 °F - 39.7 °F 58% 30.19 in 10.0 mi NNE 11.5 mph 20.7 mph N/A   Overcast
7:15 PM 53.1 °F - 39.0 °F 59% 30.21 in 10.0 mi NNE 11.5 mph 18.4 mph N/A   Overcast
7:35 PM 52.3 °F - 38.5 °F 59% 30.22 in 10.0 mi NNE 13.8 mph 23.0 mph N/A   Mostly Cloudy
7:55 PM 51.8 °F - 38.1 °F 60% 30.23 in 10.0 mi NNE 12.7 mph 18.4 mph N/A   Mostly Cloudy
8:15 PM 51.4 °F - 37.9 °F 60% 30.24 in 10.0 mi NNE 11.5 mph 18.4 mph N/A   Overcast
8:35 PM 51.1 °F - 37.8 °F 60% 30.24 in 10.0 mi North 11.5 mph 19.6 mph N/A   Overcast
9:15 PM 50.2 °F - 35.8 °F 58% 30.25 in 10.0 mi NNE 12.7 mph 19.6 mph N/A   Overcast
9:35 PM 49.6 °F - 34.3 °F 56% 30.26 in 10.0 mi North 15.0 mph 20.7 mph N/A   Overcast
9:55 PM 49.1 °F - 34.0 °F 56% 30.27 in 10.0 mi NNE 13.8 mph 21.9 mph N/A   Overcast
10:15 PM 48.7 °F - 34.2 °F 57% 30.28 in 10.0 mi NNE 12.7 mph 20.7 mph N/A   Overcast
10:35 PM 48.4 °F - 34.0 °F 58% 30.28 in 10.0 mi NNE 12.7 mph 18.4 mph N/A   Overcast
10:55 PM 48.2 °F - 33.8 °F 58% 30.28 in 10.0 mi NNE 12.7 mph 20.7 mph N/A   Overcast
11:35 PM 47.7 °F - 34.0 °F 59% 30.28 in 10.0 mi North 11.5 mph 17.3 mph N/A   Overcast
11:55 PM 47.3 °F - 33.4 °F 59% 30.28 in 10.0 mi NNE 17.3 mph - N/A   Overcast